Weather History for KIRK - October, 2012

Change the Weather History Date:

Monday, October 15, 2012

  Actual Average Record
Temperature  
Mean Temperature 54 °F 53 °F  
Max Temperature 69 °F 64 °F 89 °F (1938)
Min Temperature 38 °F 43 °F 29 °F (1937)
Degree Days  
Heating Degree Days 11 12  
Month to date heating degree days 214 147  
Since 1 July heating degree days 350 254  
Cooling Degree Days 0 0  
Month to date cooling degree days 0 10  
Year to date cooling degree days 1300 937  
Growing Degree Days 4 (Base 50)    
Moisture  
Dew Point 41 °F    
Average Humidity 69    
Maximum Humidity 100    
Minimum Humidity 37    
Precipitation  
Precipitation 0.00 in 0.12 in 1.50 in (1967)
Month to date precipitation 2.29 1.65  
Year to date precipitation 23.05 33.17  
Sea Level Pressure  
Sea Level Pressure 29.98 in    
Wind  
Wind Speed 4 mph (SSW)    
Max Wind Speed 9 mph    
Max Gust Speed 12 mph    
Visibility 10 miles    
Events      
T = Trace of Precipitation, MM = Missing Value Source: NWS Daily Summary

Daily Weather History Graph

Daily Weather History Graph

Search for Another Location

Airport or City:

Trip Planner

Search our weather history database for the weather conditions in past years. The results will help you decide how hot, cold, wet, or windy it might be!

Date:

Astronomy

Oct. 15, 2012 Rise Set
Actual Time 7:21 AM CDT 6:29 PM CDT
Civil Twilight 6:53 AM CDT 6:57 PM CDT
Nautical Twilight 6:22 AM CDT 7:28 PM CDT
Astronomical Twilight 5:51 AM CDT 7:59 PM CDT
Moon 7:32 AM CDT (10/15) 6:29 PM CDT (10/15)
Length of Visible Light 12h 03m
Length of Day
11h 08m
New Moon, 0% of the Moon is Illuminated
Oct 15
New Moon
Oct 21
First Quarter
Oct 29
Full
Nov 6
Last Quarter
Nov 13
New

Hourly Weather History & Observations

Time (CDT) Temp. Windchill Dew Point Humidity Pressure Visibility Wind Dir Wind Speed Gust Speed Precip Events Conditions
12:55 AM 42.1 °F 39.2 °F 39.9 °F 92% 29.97 in 10.0 mi West 4.6 mph - N/A   Clear
1:55 AM 45.0 °F 42.6 °F 41.0 °F 86% 29.98 in 10.0 mi NW 4.6 mph - N/A   Clear
2:55 AM 42.1 °F - 39.0 °F 89% 29.98 in 10.0 mi Calm Calm - N/A   Clear
3:55 AM 42.1 °F 39.2 °F 39.0 °F 89% 29.99 in 10.0 mi West 4.6 mph - N/A   Clear
4:55 AM 39.9 °F 36.7 °F 39.0 °F 97% 30.00 in 10.0 mi West 4.6 mph - N/A   Clear
5:55 AM 39.0 °F 35.7 °F 37.0 °F 93% 30.01 in 10.0 mi WNW 4.6 mph - N/A   Clear
6:55 AM 41.0 °F 39.0 °F 37.9 °F 89% 30.02 in 10.0 mi NW 3.5 mph - N/A   Clear
7:55 AM 43.0 °F 41.3 °F 37.9 °F 82% 30.02 in 10.0 mi NNW 3.5 mph - N/A   Clear
8:55 AM 48.9 °F - 42.1 °F 77% 30.04 in 10.0 mi West 4.6 mph - N/A   Clear
9:55 AM 54.0 °F - 42.1 °F 64% 30.04 in 10.0 mi Calm Calm - N/A   Clear
10:55 AM 59.0 °F - 41.0 °F 51% 30.04 in 10.0 mi Variable 3.5 mph - N/A   Clear
11:55 AM 62.1 °F - 39.9 °F 44% 30.03 in 10.0 mi Calm Calm - N/A   Clear
12:55 PM 64.9 °F - 39.9 °F 40% 30.02 in 10.0 mi Calm Calm - N/A   Clear
1:55 PM 66.9 °F - 39.9 °F 37% 29.99 in 10.0 mi Variable 3.5 mph - N/A   Clear
2:55 PM 66.9 °F - 42.1 °F 40% 29.98 in 10.0 mi South 3.5 mph - N/A   Clear
3:55 PM 68.0 °F - 42.1 °F 39% 29.96 in 10.0 mi South 5.8 mph - N/A   Clear
4:55 PM 66.9 °F - 44.1 °F 44% 29.94 in 10.0 mi SSE 3.5 mph - N/A   Clear
5:55 PM 63.0 °F - 46.0 °F 54% 29.94 in 10.0 mi SE 5.8 mph - N/A   Clear
6:55 PM 57.9 °F - 44.1 °F 60% 29.94 in 10.0 mi South 3.5 mph - N/A   Clear
7:55 PM 53.1 °F - 44.1 °F 71% 29.94 in 10.0 mi SE 3.5 mph - N/A   Clear
8:55 PM 55.0 °F - 43.0 °F 64% 29.93 in 10.0 mi SE 4.6 mph - N/A   Clear
9:55 PM 50.0 °F - 43.0 °F 77% 29.93 in 10.0 mi SE 5.8 mph - N/A   Clear
10:55 PM 50.0 °F - 43.0 °F 77% 29.92 in 10.0 mi SE 6.9 mph - N/A   Clear
11:55 PM 51.1 °F - 44.1 °F 77% 29.90 in 10.0 mi SE 6.9 mph - N/A   Clear